Погода в Вилюйске

Погода в Вилюйске : погода сейчас, прогноз погоды и архив. Всё, что Вы хотите узнать о погоде в Вилюйске!

Хотите узнать прогноз погоды в Вилюйске? Тогда Вам сюда: Погода в Вилюйске

Поиск расширенной информации на нашем сайте:

Другие новости

Новости СМИ2

Главная страница сайта

Новости сайта

03.07.2017

Напоминаем, что на нашем специализированном сайте Метеоцентр.Азия вы можете получить высокодетализированные автоматические прогнозы погоды по пунктам России, СНГ и мира в авиационном формате (включающие направление и скорость ветра, видимость, явления погоды, количество и форму облачности, нижнюю и верхнюю границу облачности).


Погода в Вилюйске - сегодня

Время (UTC), дата Ветер
(°,м/с) 
Видим.   Явления Облачность Т
(°С)
Тd
(°С)
f(%) Тe
(°С)
Pmin
(гПа)
dP
(гПа)
Po
(мм)
O2
(г/м3)
Тmin Tmax R s Состояние
почвы
09 21.02.18 170 (Ю) 20000 м    10/0 верхняя 
[Ci fib]
-27.9 -31.7 70 -29  1016.5  0.3  751  339           
12 21.02.18 200 (Ю) 20000 м    10/0 средняя, верхняя 
[As trans|Ci fib]
-28.5 -31.5 75 -29  1016.6  0.1  751  340    -26.1  0.0     
15 21.02.18 140 (ЮВ) 20000 м    10/0 верхняя 
[Ci fib]
-29.6 -32.6 75 -30  1016.4  -0.3  751  341           
18 21.02.18 150 (ЮВ) 20000 м    4/0 верхняя 
[Ci fib]
-30.6 -33.6 75 -34  1016.4  -0.1  750  342           
21 21.02.18 140 (ЮВ) 20000 м    3/0 верхняя 
[Ci fib]
-31.5 -34.5 75 -35  1016.3  -0.1  750  344           
00 22.02.18 080 (В) 20000 м    4/0 верхняя 
[Ci fib]
-34.1 -37.1 74 -35  1017.3  0.8  751  348  -34.3      50  равномерный
сухой снег
100% 
03 22.02.18 150 (ЮВ) 20000 м    3/0 верхняя 
[Ci fib]
-27 -30.1 75 -28  1017.2  0.4  751  338           
06 22.02.18 140 (ЮВ) 20000 м    3/0 верхняя 
[Ci fib]
-24.3 -27.5 75 -27  1017.5  0.4  752  334           
09 22.02.18 120 (ЮВ) 20000 м    4/0 верхняя 
[Ci fib]
-25.5 -28.6 75 -29  1019.1  1.5  753  336           
12 22.02.18 090 (В) 20000 м    ясно 
-28.4 -31.5 75 -32  1021.2  1.9  754  341    -23.6       
15 22.02.18 080 (В) 20000 м    ясно 
-31.4 -34.2 76 -35  1022.5  1.1  755  346           
18 22.02.18 070 (В) 20000 м    ясно 
-33.2 -36.2 74 -37  1023.9  1.2  756  349           
21 22.02.18 080 (В) 20000 м    ясно 
-34.4 -37.4 74 -39  1025.6  1.6  757  351           
00 23.02.18 080 (В) 20000 м    ясно 
-35.5 -38.3 75 -37  1027.3  2.7  758  353  -35.8      50  равномерный
сухой снег
100% 
03 23.02.18 080 (В) 20000 м    ясно 
-30.8 -33.8 75 -32  1028.1  759  347           
06 23.02.18 360 (С) 20000 м    ясно 
-25.7 -29.5 70 -26  1028.7  0.9  760  340           
09 23.02.18 040 (СВ) 20000 м    ясно 
-25.3 -29.1 71 -26  1030.2  1.6  761  340           
12 23.02.18 080 (В) 20000 м    ясно 
-28.4 -32.2 70 -32  1032  1.5  762  345    -23.8       
15 23.02.18 060 (СВ) 20000 м    ясно 
-29.8 -33.5 70 -33  1032.6  0.6  763  347           
18 23.02.18 060 (СВ) 20000 м    ясно 
-31.5 -35.2 70 -35  1033.1  0.4  763  349           
21 23.02.18 040 (СВ) 20000 м    ясно 
-32.2 -35.9 70 -36  1033.9  0.6  763  351           
00 24.02.18 020 (С) 20000 м    10/0 верхняя 
[Ci fib]
-33.1 -36 75 -34  1034  0.1  763  352  -33.4      50  равномерный
сухой снег
100% 
03 24.02.18 070 (В) 20000 м    10/0 верхняя 
[Cs]
-28.4 -31.5 75 -32  1034.1  0.4  764  345           
06 24.02.18 360 (С) 20000 м  слаб. снег  10/0 верхняя 
[Cs]
-24.2 -28.1 70 -25  1033.6  -0.3  763  339           
09 24.02.18 040 (СВ) 20000 м  слаб. снег  10/0 верхняя 
[Cs]
-25.1 -29 70 -26  1034.1  0.5  764  341           
Время (UTC), дата Ветер
(°,м/с) 
Видим.   Явления Облачность Т
(°С)
Тd
(°С)
f(%) Тe
(°С)
Pmin
(гПа)
dP
(гПа)
Po
(мм)
O2
(г/м3)
Тmin Tmax R s Состояние
почвы

Для получения пояснительной информации подведите курсор к названию столбца.

ПОГОДА в Вилюйске - архив

Всё, что Вы хотите узнать о погоде в Вилюйске - удобно и подробно!

Выберите нужную дату (начиная с 1 января 2015* года) и нажмите кнопку "Найти".
Будут отображены архивные сводки погоды по пункту Вилюйск, начиная с указанной даты.


Отображать данные в формате CSV (для использования в таблицах Excel)


Внимание! Наш архив погоды предназначен исключительно для личного некоммерческого использования в познавательных целях. Если Вам необходимы официальные справки о состоянии погоды (для производственных, юридических, коммерческих и т.п. целей), обращайтесь в органы Росгидромета.

*Примечание: данная дата относится к архиву по метеостанциям СССР (Россия, СНГ, Балтия).
Архив по метеостанциям Зарубежной Европы и Азии (кроме Китая) хранится 10 дней, по другим регионам земного шара (Китай, Африка, Америка, Австралия, Океания) - 1 день.

Вилюйск - район местоположения метеостанции


Название, широта, долгота, высота метеостанции:
Вилюйск 63.8°ш. 121.6°д. 111 м над ур. моря [Российская Федерация]

Дополнительная информация

В oтличие oт бoльшинства пoгoдных сайтoв мы публикуем пoдрoбную метеoинфoрмацию в детальнoм прoфессиoнальнoм фoрмате.

Характеристики температуры и влажнoсти вoздуха измеряются на высoте 2 м в тени вдали oт зданий и деревьев.
Скoрoсть ветра измеряется на высoте 10 м (на урoвне рoста челoвека скoрoсть ветра ниже в 1.5-2 раза). Если метеoстанция нахoдится в гoрoде или в лесу, тo скoрoсть ветра занижена на 2-4 м/с пo сравнению с oткрытым местoм. Скoрoсть ветра над акватoриями крупных рек и oзёр, а также на вершинах хoлмoв на 2-5 м/с выше, чем в oбычных услoвиях.
Атмoсфернoе давление в разных тoчках местнoсти мoжет значительнo oтличаться oт давления на метеoстанции, в зависимoсти oт услoвий рельефа (при пoдъёме на 10 м давление пoнижается примернo на 1 мм рт.ст.).